STARLINK-5292 (55308 NORAD) Tracking and Keplerian Element Data

This shows tracking and keplerian element data for the satellite.

Feedback or suggestion? Click here.




ElementValue
Catalog55308
NameSTARLINK-5292
Epoch Orbit1739
Epoch Day127.1126707
Epoch Year2023
RAAN126.4369
Inclination69.9976
Eccentricity0.0003393
Argument of Perigee261.9169
Mean Anonmoly98.1641
Mean Motion15.69922497
Decay Rate9.17E-06
L11 55308U 23010AR 23127.11267070 .00000917 00000+0 93968-5 0 9992
L22 55308 69.9976 126.4369 0003393 261.9169 98.1641 15.69922497 17395



Live tracking and technical data element details for STARLINK-5292 (NORAD 55308). STARLINK-5292 can be tracked NOW for your location showing map with azimuth and elevation plus other details from your city location.







IsCatalogInMostPopularTable: catalog: 55308, numindb: -1

Insert: records affected: 1


GetName: 55308 STARLINK-5292

Hit Count: inserted at: Mon, 05 Jun 2023 19:52:18 GMT